This is the latest recevied weather packets stored in our database for station/object N9CQL. If no packets are shown the sender has not sent any weather packets the latest 10 day(s).
| Time | Temp. | Humidity | Pressure | Rain* | Wind** | Luminosity | Snow |
|---|---|---|---|---|---|---|---|
| 1778203211 | 10.56° C | 87% | 1008.7 hPa | 0 mm | - | 0 W/m² | - |
| 1778202909 | 10.56° C | 87% | 1008.6 hPa | 0 mm | - | 0 W/m² | - |
| 1778202606 | 10.56° C | 86% | 1008.6 hPa | 0 mm | - | 0 W/m² | - |
| 1778202303 | 10.56° C | 85% | 1008.6 hPa | 0 mm | - | 0 W/m² | - |
| 1778202000 | 11.11° C | 84% | 1008.7 hPa | 0 mm | - | 0 W/m² | - |
| 1778201696 | 11.11° C | 84% | 1008.6 hPa | 0 mm | - | 1 W/m² | - |
| 1778201394 | 11.67° C | 83% | 1008.6 hPa | 0 mm | - | 3 W/m² | - |
| 1778201089 | 11.67° C | 82% | 1008.3 hPa | 0 mm | - | 4 W/m² | - |
| 1778200786 | 11.67° C | 81% | 1008.3 hPa | 0 mm | - | 6 W/m² | - |
| 1778200483 | 12.22° C | 80% | 1008.3 hPa | 0 mm | - | 10 W/m² | - |
| 1778200180 | 12.22° C | 79% | 1008.6 hPa | 0 mm | - | 12 W/m² | - |
| 1778199876 | 12.22° C | 79% | 1008.3 hPa | 0 mm | - | 16 W/m² | - |
| 1778199572 | 12.78° C | 78% | 1008.5 hPa | 0 mm | - | 18 W/m² | - |
| 1778199269 | 12.78° C | 77% | 1008.5 hPa | 0 mm | - | 20 W/m² | - |
| 1778198966 | 12.78° C | 77% | 1008.5 hPa | 0 mm | - | 26 W/m² | - |
| 1778198661 | 13.33° C | 77% | 1008.3 hPa | 0 mm | - | 29 W/m² | - |
| 1778198359 | 13.33° C | 78% | 1008.5 hPa | 0 mm | - | 46 W/m² | - |
| 1778198056 | 13.33° C | 77% | 1008.5 hPa | 0 mm | - | 41 W/m² | - |
| 1778197753 | 12.78° C | 76% | 1008.7 hPa | 0 mm | - | 37 W/m² | - |
| 1778197449 | 13.33° C | 76% | 1008.7 hPa | 0 mm | - | 41 W/m² | - |
| 1778197146 | 13.89° C | 76% | 1008.7 hPa | 0 mm | - | 40 W/m² | - |
| 1778196843 | 13.89° C | 76% | 1008.5 hPa | 0 mm | - | 73 W/m² | - |
| 1778196542 | 13.89° C | 77% | 1008.6 hPa | 0 mm | - | 124 W/m² | - |
| 1778196238 | 13.33° C | 79% | 1008.7 hPa | 0 mm | - | 161 W/m² | - |
| 1778195935 | 12.78° C | 78% | 1008.9 hPa | 0 mm | - | 54 W/m² | - |
* Rain latest hour (hover to see other rain measurements)
** Current wind speed in m/s (hover to see current wind gust speed)